Englewood, CO

2:03 PM MDT on September 26, 2016 (GMT -0600)
Centennial

Weather History for KAPA - January, 2013

Change the Weather History Date:

Friday, January 11, 2013

  Actual Average Record
Temperature  
Mean Temperature 26 °F -  
Max Temperature 42 °F 42 °F 62 °F (1999)
Min Temperature 10 °F 19 °F -7 °F (1997)
Degree Days  
Heating Degree Days 39    
Month to date heating degree days 386  
Moisture  
Dew Point 16 °F    
Average Humidity 61    
Maximum Humidity 92    
Minimum Humidity 30    
Precipitation  
Precipitation 0.04 in - - ()
Month to date precipitation 0.04  
Year to date precipitation 0.04  
Sea Level Pressure  
Sea Level Pressure 29.48 in    
Wind  
Wind Speed 14 mph (SSE)    
Max Wind Speed 28 mph    
Max Gust Speed 37 mph    
Visibility 8 miles    
Events Snow    
Averages and records for this station are not official NWS values.
T = Trace of Precipitation, MM = Missing Value Source: NWS Daily Summary

Daily Weather History Graph

Daily Weather History Graph

Search for Another Location

Airport or City:

Trip Planner

Search our weather history database for the weather conditions in past years. The results will help you decide how hot, cold, wet, or windy it might be!

Date:

Astronomy

Jan. 11, 2013 Rise Set
Actual Time 7:19 AM MST 4:55 PM MST
Civil Twilight 6:49 AM MST 5:25 PM MST
Nautical Twilight 6:16 AM MST 5:58 PM MST
Astronomical Twilight 5:43 AM MST 6:31 PM MST
Moon 6:54 AM MST (1/11) 5:16 PM MST (1/11)
Length of Visible Light 10h 36m
Length of Day
9h 36m
Waning Crescent, 0% of the Moon is Illuminated
Jan 11
Waning Crescent
Jan 11
New
Jan 18
First Quarter
Jan 26
Full
Feb 3
Last Quarter

Hourly Weather History & Observations

Time (MST) Temp. Windchill Dew Point Humidity Pressure Visibility Wind Dir Wind Speed Gust Speed Precip Events Conditions
12:53 AM 42.1 °F 34.5 °F 14.0 °F 32% 29.42 in 10.0 mi SW 15.0 mph 21.9 mph N/A   Clear
1:53 AM 41.0 °F 31.1 °F 15.1 °F 35% 29.37 in 10.0 mi SW 23.0 mph 29.9 mph N/A   Clear
2:53 AM 41.0 °F 31.4 °F 14.0 °F 33% 29.33 in 10.0 mi SSW 21.9 mph - N/A   Clear
3:53 AM 39.0 °F 30.3 °F 14.0 °F 36% 29.31 in 10.0 mi SSW 16.1 mph 24.2 mph N/A   Clear
4:53 AM 33.1 °F 26.1 °F 14.0 °F 46% 29.30 in 10.0 mi SSE 8.1 mph - N/A   Clear
5:53 AM 30.0 °F 23.2 °F 16.0 °F 56% 29.30 in 10.0 mi South 6.9 mph - N/A   Scattered Clouds
6:53 AM 30.0 °F 21.1 °F 18.0 °F 61% 29.27 in 10.0 mi South 10.4 mph 21.9 mph N/A   Scattered Clouds
7:53 AM 34.0 °F 25.0 °F 18.0 °F 52% 29.25 in 10.0 mi SSE 12.7 mph - N/A   Mostly Cloudy
8:53 AM 37.9 °F 30.5 °F 18.0 °F 45% 29.25 in 10.0 mi SSW 11.5 mph - N/A   Mostly Cloudy
9:53 AM 39.0 °F 35.7 °F 23.0 °F 53% 29.24 in 9.0 mi Variable 4.6 mph - 0.00 in   Mostly Cloudy
10:38 AM 41.0 °F 31.1 °F 12.2 °F 31% 29.30 in 10.0 mi WSW 23.0 mph 33.4 mph N/A   Mostly Cloudy
10:53 AM 39.9 °F 29.7 °F 17.1 °F 40% 29.27 in 10.0 mi West 23.0 mph 31.1 mph N/A   Overcast
11:05 AM 32.0 °F 18.9 °F 23.0 °F 69% 29.33 in 2.0 mi WNW 24.2 mph 33.4 mph 0.00 in Snow Light Snow
11:08 AM 30.2 °F 17.4 °F 24.8 °F 80% 29.34 in 1.0 mi WNW 20.7 mph 33.4 mph 0.00 in Snow Light Snow
11:18 AM 26.6 °F 13.8 °F 24.8 °F 93% 29.35 in 0.8 mi West 17.3 mph 27.6 mph 0.00 in Snow Light Snow
11:53 AM 25.0 °F 13.6 °F 24.1 °F 96% 29.40 in 0.8 mi WNW 12.7 mph - 0.02 in Snow Light Snow
11:57 AM 24.8 °F 14.6 °F 24.8 °F 100% 29.36 in 0.8 mi West 10.4 mph - 0.01 in Snow Light Snow
12:35 PM 26.6 °F 16.2 °F 23.0 °F 86% 29.35 in 7.0 mi North 11.5 mph - 0.02 in   Mostly Cloudy
1:53 PM 27.0 °F 19.5 °F 23.0 °F 85% 29.43 in 10.0 mi East 6.9 mph - N/A   Mostly Cloudy
2:26 PM 24.8 °F 12.4 °F 21.2 °F 86% 29.43 in 7.0 mi ENE 15.0 mph 24.2 mph 0.00 in Snow Light Snow
2:53 PM 24.1 °F 13.7 °F 19.9 °F 84% 29.49 in 10.0 mi ENE 10.4 mph 26.5 mph 0.00 in   Overcast
3:21 PM 24.8 °F 15.3 °F 21.2 °F 86% 29.48 in 10.0 mi NE 9.2 mph 20.7 mph N/A   Overcast
3:53 PM 21.9 °F 10.4 °F 19.0 °F 89% 29.57 in 8.0 mi East 11.5 mph - N/A   Overcast
4:37 PM 21.2 °F 10.1 °F 17.6 °F 86% 29.55 in 10.0 mi East 10.4 mph 18.4 mph N/A   Overcast
4:53 PM 19.9 °F 7.9 °F 15.1 °F 81% 29.68 in 10.0 mi ENE 11.5 mph - N/A   Overcast
5:10 PM 19.4 °F 9.5 °F 15.8 °F 86% 29.59 in 2.0 mi ENE 8.1 mph - 0.00 in Snow Light Snow
5:33 PM 19.4 °F 6.6 °F 15.8 °F 86% 29.60 in 3.0 mi East 12.7 mph - 0.00 in Snow Light Snow
5:53 PM 18.0 °F 6.9 °F 15.1 °F 88% 29.74 in 8.0 mi ESE 9.2 mph - 0.00 in Snow Light Snow
6:22 PM 17.6 °F 7.3 °F 14.0 °F 86% 29.63 in 10.0 mi SE 8.1 mph - N/A   Scattered Clouds
6:53 PM 16.0 °F 10.4 °F 12.9 °F 88% 29.78 in 10.0 mi ESE 3.5 mph - N/A   Scattered Clouds
7:53 PM 14.0 °F - 10.9 °F 88% 29.81 in 10.0 mi Calm Calm - N/A   Scattered Clouds
8:53 PM 12.0 °F 2.7 °F 10.9 °F 95% 29.81 in 10.0 mi ESE 5.8 mph - N/A   Partly Cloudy
9:53 PM 14.0 °F 6.5 °F 7.0 °F 74% 29.80 in 10.0 mi SSE 4.6 mph - N/A   Scattered Clouds
10:53 PM 17.1 °F 5.0 °F -0.0 °F 47% 29.79 in 10.0 mi SW 10.4 mph - N/A   Scattered Clouds
11:53 PM 14.0 °F 3.9 °F -4.0 °F 45% 29.88 in 10.0 mi SW 6.9 mph - N/A   Partly Cloudy